Back to catalog

STARLINK-35021

AliveCommunicationsSSO
NORAD 65282·PAYLOAD·🇺🇸 United States

Launched Aug 22, 2025 from Vandenberg Space Force Base

Loading…

Next Passes (next 24 hours)

TLE

FreshSource: CelesTrak SupGP

Epoch: Sep 14, 2026, 21:31 UTC

1 65282C 25184K   26257.89701389  .00004591  00000+0  14257-3 0  2577
2 65282  97.2837 305.9079 0000990  87.8320 253.4402 15.33426338    19

Track STARLINK-35021 in real time with AllMySat

Download on the App Store